[[{"header":{"parameterUnit":"m.s-1","parameterCategory":1,"la1":30.2992,"la2":30.254,"lo1":-89.0895,"lo2":-89.0443,"dy":0.0025,"dx":0.0025,"nx":19,"ny":19,"refTime":"2026-05-05T03:00:00:Z","depth":0,"parameterNumber":2,"parameterNumberName":"U-component_of_WINDS"},"data":[0,0,0,0.1307,0.1306,0.1267,0.1267,0.122,0.122,0,0,0,0,0,0,0,0,0,0,0,0.1323,0.1323,0.1307,0.1306,0.1267,0.1267,0.1221,0.122,0,0,0,0,0,0,0,0,0,0,0,0.1323,0.1323,0.1323,0.1306,0.1267,0.1267,0.1221,0.1249,0,0,0,0,0,0,0,0,0,0,0.1286,0.1305,0.1323,0.1323,0.1306,0.1267,0.1267,0.125,0.1247,0.1241,0,0.1237,0,0.1228,0.1217,0.1217,0,0,0,0.1303,0.1308,0.1293,0.1323,0.1306,0.1267,0.1284,0.1248,0.1245,0.1237,0.1237,0.1235,0.1227,0.1217,0.1217,0.1193,0.1193,0,0,0.1305,0.1318,0.1296,0.1291,0.1299,0.1285,0.1283,0.1246,0.1247,0.1237,0.1234,0.1227,0.1217,0.1217,0.1193,0.1193,0,0,0,0.1314,0.132,0.1306,0.1293,0.1286,0.1284,0.1281,0.1248,0.1243,0.1233,0.1226,0.1217,0.1216,0.1193,0.1193,0.1206,0,0,0,0.1315,0.1325,0.1307,0.1315,0.1287,0.1267,0.1284,0.1245,0.1241,0.1226,0.1217,0.1216,0.1193,0.1193,0.1205,0.121,0,0,0,0.1324,0.1326,0.1321,0.1315,0.1299,0.1267,0.1259,0.1244,0.1236,0.1217,0.1216,0.1192,0.1193,0.1205,0.1209,0.1206,0,0,0,0.1338,0.1335,0.1322,0.1316,0.1299,0.1276,0.126,0.1242,0.1227,0.1216,0.1193,0.1193,0.1205,0.1209,0.1206,0.1205,0.1206,0,0,0.1341,0.1336,0.1331,0.1318,0.13,0.1281,0.1265,0.1239,0.1226,0.1204,0.1203,0.1205,0.1209,0.1206,0.121,0.1211,0,0,0,0.1336,0.1333,0.1325,0.1312,0.1292,0.1274,0.125,0.124,0.1221,0.1218,0.1203,0.1205,0.1203,0.1202,0.1203,0.1199,0.1193,0.1193,0.1193,0.136,0.1342,0.1332,0.1308,0.1295,0.1269,0.1256,0.1237,0.1225,0.1221,0.1215,0.1219,0.1219,0.1219,0.1215,0.1213,0.1213,0.1213,0.1214,0.1362,0.1353,0.1334,0.1317,0.1298,0.1283,0.1257,0.1247,0.123,0.1223,0.122,0.1214,0.1221,0.1216,0.1214,0.1214,0.1214,0.1214,0.1214,0.1374,0.1367,0.1355,0.1331,0.1315,0.1291,0.1274,0.1257,0.1241,0.1238,0.1228,0.1228,0.1224,0.1234,0.1234,0.1234,0.1234,0.1234,0.1234,0.1392,0.1378,0.1366,0.1343,0.133,0.1312,0.1283,0.127,0.1251,0.124,0.124,0.1226,0.1225,0.1225,0.1235,0.1235,0.1235,0.1235,0.1235,0.14,0.1395,0.1377,0.1365,0.1334,0.1318,0.1296,0.127,0.1257,0.1248,0.1234,0.1237,0.123,0.123,0.1229,0.1239,0.1239,0.1239,0.1239,0.141,0.1405,0.1381,0.1362,0.1341,0.1318,0.1296,0.1273,0.1248,0.1238,0.1234,0.1232,0.1232,0.1225,0.1225,0.1224,0.1232,0.1232,0.1232,0.1413,0.1404,0.139,0.1366,0.134,0.1318,0.1296,0.1273,0.1244,0.1232,0.1229,0.123,0.1226,0.1227,0.1215,0.1214,0.1213,0,0]},{"header":{"parameterUnit":"m.s-1","parameterCategory":1,"la1":30.2992,"la2":30.254,"lo1":-89.0895,"lo2":-89.0443,"dy":0.0025,"dx":0.0025,"nx":19,"ny":19,"refTime":"2026-05-05T03:00:00:Z","depth":0,"parameterNumber":3,"parameterNumberName":"V-component_of_WINDS"},"data":[0,0,0,5.2069,5.2071,5.2174,5.2174,5.2316,5.2318,0,0,0,0,0,0,0,0,0,0,0,5.2048,5.2049,5.2068,5.2071,5.2174,5.2174,5.2316,5.2318,0,0,0,0,0,0,0,0,0,0,0,5.2047,5.2049,5.2051,5.2072,5.2174,5.2175,5.2316,5.2233,0,0,0,0,0,0,0,0,0,0,5.2131,5.2123,5.2048,5.2051,5.2072,5.2174,5.2175,5.2229,5.2239,5.2275,0,5.2313,0,5.2318,5.2328,5.2329,0,0,0,5.2063,5.2116,5.2134,5.2051,5.2073,5.2174,5.2125,5.2234,5.2245,5.2287,5.2315,5.232,5.232,5.2329,5.233,5.2569,5.257,0,0,5.2058,5.2071,5.2127,5.2142,5.213,5.2122,5.2129,5.2241,5.227,5.2315,5.2323,5.2322,5.233,5.2331,5.2568,5.2569,0,0,0,5.2047,5.2068,5.2084,5.2136,5.2154,5.2125,5.2133,5.2265,5.2269,5.2324,5.2324,5.2331,5.2333,5.2566,5.2568,5.2653,0,0,0,5.2043,5.2061,5.2081,5.2091,5.2153,5.2212,5.2156,5.2262,5.2274,5.2323,5.2331,5.2334,5.2564,5.2567,5.2647,5.269,0,0,0,5.2038,5.2061,5.2079,5.2091,5.2137,5.221,5.222,5.2264,5.2274,5.2329,5.2335,5.2563,5.2567,5.2642,5.2682,5.2754,0,0,0,5.2036,5.2156,5.2081,5.2213,5.2136,5.2263,5.2219,5.2313,5.2371,5.2332,5.2565,5.2568,5.2641,5.2677,5.2749,5.2815,5.2845,0,0,5.2194,5.2175,5.2252,5.2188,5.2332,5.2246,5.2401,5.2441,5.2433,5.2523,5.2529,5.2649,5.2681,5.2753,5.3015,5.3039,0,0,0,5.2306,5.2361,5.2396,5.2451,5.2484,5.2514,5.2528,5.2541,5.2616,5.2483,5.2696,5.2715,5.2756,5.2787,5.2807,5.284,5.2584,5.2584,5.2583,5.255,5.2532,5.2656,5.265,5.2703,5.2714,5.2754,5.2773,5.2742,5.2792,5.2818,5.2979,5.3016,5.3031,5.3065,5.2855,5.2855,5.2855,5.2855,5.2777,5.285,5.2802,5.2904,5.2883,5.2968,5.2981,5.2955,5.3028,5.296,5.2995,5.2918,5.3058,5.3087,5.2862,5.2861,5.286,5.2859,5.2859,5.2932,5.2963,5.2977,5.305,5.3108,5.3097,5.3168,5.3148,5.3129,5.3164,5.3186,5.3184,5.3177,5.3177,5.3177,5.3178,5.3178,5.3179,5.3179,5.3086,5.3099,5.3162,5.3203,5.3232,5.3268,5.3277,5.3304,5.3329,5.3307,5.3307,5.3267,5.3077,5.3027,5.3187,5.3186,5.3185,5.3184,5.3183,5.3318,5.3261,5.3359,5.3388,5.343,5.3486,5.3458,5.3514,5.3534,5.3568,5.3521,5.3384,5.3363,5.3346,5.3305,5.3527,5.3527,5.3527,5.3527,5.3446,5.3433,5.3525,5.3571,5.3615,5.3598,5.3703,5.3709,5.3706,5.3716,5.3681,5.3625,5.361,5.3597,5.3575,5.3536,5.3812,5.3812,5.3812,5.3585,5.3574,5.367,5.3666,5.3696,5.3721,5.3818,5.3871,5.3856,5.3823,5.3722,5.371,5.3619,5.3592,5.3556,5.3522,5.345,0,0]}]]